Prague, Czech Republic

7:08 PM CEST on September 30, 2016 (GMT +0200)
Ruzyne

Weather History for LKPR - July, 2013

Change the Weather History Date:

Tuesday, July 2, 2013

  Actual Average Record
Temperature  
Mean Temperature 65 °F -  
Max Temperature 78 °F 70 °F 84 °F (2008)
Min Temperature 52 °F 52 °F 48 °F (2011)
Growing Degree Days 15 (Base 50)    
Moisture  
Dew Point 53 °F    
Average Humidity 62    
Maximum Humidity 82    
Minimum Humidity 36    
Precipitation  
Precipitation 0.00 in - - ()
Sea Level Pressure  
Sea Level Pressure 30.01 in    
Wind  
Wind Speed 6 mph ()    
Max Wind Speed 11 mph    
Max Gust Speed -    
Visibility 6.2 miles    
Events      
Averages and records for this station are not official NWS values.
T = Trace of Precipitation, MM = Missing Value Source: Averaged Metar Reports

Daily Weather History Graph

Daily Weather History Graph

Search for Another Location

Airport or City:

Trip Planner

Search our weather history database for the weather conditions in past years. The results will help you decide how hot, cold, wet, or windy it might be!

Date:

Astronomy

Jul. 02, 2013 Rise Set
Actual Time 4:58 AM CEST 9:15 PM CEST
Civil Twilight 4:13 AM CEST 9:59 PM CEST
Nautical Twilight 3:09 AM CEST 11:03 PM CEST
Astronomical Twilight 1:39 AM CEST 12:34 AM CEST
Moon 1:11 AM CEST (7/2) 3:56 PM CEST (7/2)
Length of Visible Light 17h 45m
Length of Day
16h 17m
Waning Crescent, 29% of the Moon is Illuminated
Jul 2
Waning Crescent
Jul 8
New
Jul 16
First Quarter
Jul 22
Full
Jul 29
Last Quarter

Hourly Weather History & Observations

Time (CEST) Temp. Dew Point Humidity Pressure Visibility Wind Dir Wind Speed Gust Speed Precip Events Conditions
12:00 AM 57.2 °F 48.2 °F 72% 30.06 in - South 4.6 mph - N/A   Clear
12:30 AM 59.0 °F 50.0 °F 72% 30.06 in - South 4.6 mph - N/A   Clear
1:00 AM 55.4 °F 48.2 °F 77% 30.06 in - South 4.6 mph - N/A   Clear
1:30 AM 57.2 °F 48.2 °F 72% 30.04 in - South 5.8 mph - N/A   Clear
2:00 AM 57 °F 49 °F 66% 30.05 in 31 mi South 6.7 mph - -   Scattered Clouds
2:00 AM 57.2 °F 48.2 °F 72% 30.04 in - South 4.6 mph - N/A   Clear
2:30 AM 57.2 °F 48.2 °F 72% 30.04 in - South 4.6 mph - N/A   Clear
3:00 AM 57.2 °F 48.2 °F 72% 30.04 in - South 4.6 mph - N/A   Clear
3:30 AM 55.4 °F 48.2 °F 77% 30.04 in - South 4.6 mph - N/A   Clear
4:00 AM 55.4 °F 48.2 °F 77% 30.01 in - South 5.8 mph - N/A   Clear
4:30 AM 55.4 °F 48.2 °F 77% 30.01 in - South 6.9 mph - N/A   Clear
5:00 AM 53.6 °F 48.2 °F 82% 30.04 in - South 4.6 mph - N/A   Clear
5:30 AM 53.6 °F 48.2 °F 82% 30.04 in - South 8.1 mph - N/A   Clear
6:00 AM 55.4 °F 50.0 °F 82% 30.04 in - South 9.2 mph - N/A   Clear
6:30 AM 57.2 °F 51.8 °F 82% 30.04 in - SSW 9.2 mph - N/A   Clear
7:00 AM 59.0 °F 51.8 °F 77% 30.04 in - South 8.1 mph - N/A   Clear
7:30 AM 60.8 °F 53.6 °F 77% 30.04 in - SW 8.1 mph - N/A   Clear
8:00 AM 64 °F 54 °F 61% 30.03 in 31 mi SSW 6.7 mph - -   Clear
8:00 AM 64.4 °F 53.6 °F 68% 30.04 in - SW 6.9 mph - N/A   Clear
8:30 AM 64.4 °F 53.6 °F 68% 30.04 in - West 3.5 mph - N/A   Clear
9:00 AM 66.2 °F 53.6 °F 64% 30.04 in - SSW 3.5 mph - N/A   Clear
9:30 AM 68.0 °F 53.6 °F 60% 30.04 in - SSW 5.8 mph - N/A   Clear
10:00 AM 69.8 °F 55.4 °F 60% 30.04 in - South 4.6 mph - N/A   Clear
10:30 AM 71.6 °F 53.6 °F 53% 30.04 in - WSW 6.9 mph - N/A   Clear
11:00 AM 71.6 °F 55.4 °F 57% 30.04 in 6.2 mi WSW 5.8 mph - N/A   Partly Cloudy
11:30 AM 73.4 °F 57.2 °F 57% 30.04 in 6.2 mi West 10.4 mph - N/A   Partly Cloudy
12:00 PM 73.4 °F 55.4 °F 53% 30.04 in 6.2 mi SW 8.1 mph - N/A   Partly Cloudy
12:30 PM 75.2 °F 55.4 °F 50% 30.04 in - SW 8.1 mph - N/A   Clear
1:00 PM 75.2 °F 55.4 °F 50% 30.01 in - WSW 9.2 mph - N/A   Clear
1:30 PM 75.2 °F 53.6 °F 47% 30.01 in 6.2 mi South 9.2 mph - N/A   Scattered Clouds
2:00 PM 76 °F 54 °F 36% 29.96 in 31 mi SW 11.2 mph - -   Mostly Cloudy
2:00 PM 77.0 °F 55.4 °F 47% 30.01 in 6.2 mi SSW 9.2 mph - N/A   Scattered Clouds
2:30 PM 75.2 °F 55.4 °F 50% 30.01 in 6.2 mi SW 10.4 mph - N/A   Scattered Clouds
3:00 PM 77.0 °F 53.6 °F 44% 30.01 in 6.2 mi West 9.2 mph - N/A   Scattered Clouds
3:30 PM 77.0 °F 53.6 °F 44% 29.98 in - West 8.1 mph - N/A   Clear
4:00 PM 77.0 °F 57.2 °F 50% 29.98 in - WSW 5.8 mph - N/A   Clear
4:30 PM 77.0 °F 55.4 °F 47% 29.98 in - WSW 6.9 mph - N/A   Clear
5:00 PM 77.0 °F 59.0 °F 54% 29.98 in - West 8.1 mph - N/A   Clear
5:30 PM 78.8 °F 57.2 °F 47% 29.98 in - West 9.2 mph - N/A   Clear
6:00 PM 77.0 °F 59.0 °F 54% 29.98 in - West 10.4 mph - N/A   Clear
6:30 PM 75.2 °F 57.2 °F 53% 29.98 in - West 8.1 mph - N/A   Clear
7:00 PM 75.2 °F 59.0 °F 57% 29.98 in - West 6.9 mph - N/A   Clear
7:30 PM 75.2 °F 59.0 °F 57% 29.98 in - West 5.8 mph - N/A   Clear
8:00 PM 74 °F 57 °F 46% 29.93 in 37 mi West 4.5 mph - -   Scattered Clouds
8:00 PM 75.2 °F 57.2 °F 53% 29.98 in - West 5.8 mph - N/A   Clear
8:30 PM 69.8 °F 57.2 °F 64% 29.98 in - West 5.8 mph - N/A   Clear
9:00 PM 68.0 °F 55.4 °F 64% 29.98 in - NW 4.6 mph - N/A   Clear
9:30 PM 68.0 °F 53.6 °F 60% 29.98 in - Calm Calm - N/A   Clear
10:00 PM 64.4 °F 53.6 °F 68% 29.98 in - Variable 2.3 mph - N/A   Clear
10:30 PM 66.2 °F 53.6 °F 64% 29.98 in - Calm Calm - N/A   Clear
11:00 PM 64.4 °F 53.6 °F 68% 29.98 in - Variable 1.2 mph - N/A   Clear
11:30 PM 59.0 °F 53.6 °F 82% 29.98 in - Variable 2.3 mph - N/A   Clear